Dewpoint
28 30 26 32 26 22 24 24 27 35 40 38 36 36 40 40 30 28 41 50 42 40 40 43 46 50 51 52 57 57 62 62 61 62 63 63 63 64 64 65 66 66 66 67 67 68 68 69 69 70 71 71 70 70 70 70 69 70 71 71 71 69 71 71 72 72 72 72 72 73 73 73 73 73 72 70 70 70 70 70 67 68 69 69 69 71 74
24 25 25 24 20 26 21 19 20 24 34 36 33 37 41 37 40 45 43 50 43 39 42 43 54 55 57 60 60 61 61 61 61 61 62 62 63 63 64 65 65 65 66 67 67 67 68 68 68 69 69 70 70 70 69 70 70 70 71 71 72 71 71 72 73 73 73 73 73 73 73 73 74 74 72 72 70 71 70 70 70 71 71 71 69 69 71
22 25 28 22 20 22 19 20 26 25 23 29 35 36 39 41 41 43 43 46 46 48 50 58 59 59 60 60 60 61 61 61 61 61 61 63 63 64 63 64 64 65 65 66 66 66 67 67 68 68 69 69 69 69 70 70 71 71 70 71 71 72 72 72 73 73 73 73 73 73 73 74 74 74 73 72 72 72 71 71 71 73 72 70 70 69 70
20 24 22 26 24 21 23 26 28 30 28 29 33 35 39 38 39 46 43 39 38 48 54 59 59 59 59 59 60 60 61 61 61 61 61 62 62 63 63 64 64 64 64 65 65 65 66 66 67 68 68 68 69 69 69 70 70 71 71 71 71 72 72 73 73 73 73 73 74 73 74 74 74 74 74 74 74 73 72 71 73 71 70 71 72 71 71
23 26 29 24 23 22 21 22 23 32 35 40 37 39 44 40 43 42 37 35 47 52 58 58 59 58 58 59 60 60 61 61 60 60 61 62 63 63 64 64 64 64 64 64 65 65 66 66 67 67 68 68 69 69 69 70 70 71 71 71 71 72 72 73 73 73 74 74 74 74 74 74 74 74 74 74 73 73 72 72 71 72 73 71 72 72 72
27 27 28 27 24 20 21 36 37 35 31 38 35 35 39 45 44 41 46 45 51 55 57 57 58 58 59 61 62 61 62 62 61 62 62 62 63 63 63 64 63 64 63 64 64 65 65 66 67 67 68 68 69 70 70 70 70 70 70 70 71 71 72 72 73 73 74 74 73 74 74 74 74 74 74 74 73 73 72 73 73 73 72 73 73 74 74
27 30 29 23 20 21 37 38 45 44 36 38 36 43 48 45 50 52 50 52 56 59 58 59 59 60 60 60 61 61 61 62 62 61 62 62 62 62 63 63 63 63 64 64 65 65 65 66 67 66 66 66 67 67 68 69 70 70 70 70 70 71 71 72 72 73 73 73 73 74 74 74 74 74 74 74 74 74 73 73 74 74 73 73 74 75 74
29 27 26 21 21 34 33 40 48 48 43 42 43 44 49 52 47 52 50 55 58 58 58 59 59 59 60 60 61 61 62 62 62 62 62 62 63 62 62 62 63 64 64 64 64 65 66 65 65 65 65 65 65 65 66 67 68 69 70 70 69 70 71 71 72 73 73 73 74 74 74 74 74 74 74 74 74 75 75 74 75 75 75 74 73 71 69
25 27 24 23 37 27 37 40 45 43 45 44 40 27 38 49 53 53 53 58 58 58 58 59 59 60 58 57 59 61 62 62 62 63 63 63 63 63 63 64 64 64 64 65 65 64 64 64 63 63 64 64 64 64 64 65 66 68 69 69 69 69 70 71 71 72 73 73 73 74 74 74 74 74 74 74 75 76 75 75 74 73 72 71 70 68 68
31 26 23 23 22 21 31 45 45 48 43 45 42 38 34 49 52 56 57 59 58 58 58 59 59 59 55 45 50 61 62 63 63 63 63 64 64 64 64 64 64 64 64 65 64 63 63 62 63 63 63 63 63 63 64 64 65 66 67 68 70 70 70 70 71 72 72 73 73 73 74 73 73 74 75 75 75 75 74 73 72 71 69 67 68 68 67
28 27 23 23 24 26 38 38 42 43 43 41 45 32 29 45 52 55 56 59 59 59 59 59 58 52 42 41 46 59 62 63 64 63 63 63 63 63 64 63 63 63 63 63 63 63 62 62 62 63 64 64 63 63 64 64 64 64 65 67 68 69 70 70 71 71 72 73 73 73 73 73 73 73 74 74 74 74 73 71 69 68 67 66 66 66 66
30 28 24 22 33 24 37 45 41 41 46 41 37 27 26 44 52 55 57 59 60 60 60 60 56 47 44 42 50 59 62 63 63 63 62 62 62 63 62 63 63 63 63 62 62 61 61 62 63 63 63 63 63 63 64 64 65 65 65 66 68 69 70 71 71 71 71 72 72 72 73 73 74 74 74 72 71 71 70 68 67 67 67 66 64 64 64
32 31 25 26 29 39 44 42 45 46 44 39 29 25 26 48 53 57 57 59 61 61 60 59 52 54 54 57 61 62 63 62 62 63 63 63 62 61 61 61 63 61 61 61 61 61 62 62 62 63 63 62 63 63 64 65 65 66 67 67 67 68 69 70 70 71 71 71 71 72 72 72 73 73 72 71 70 69 67 66 66 65 64 63 62 62 63
28 28 23 23 35 40 40 46 45 49 41 31 30 39 53 55 56 60 58 59 60 61 61 60 57 58 57 60 62 62 61 60 60 60 60 61 61 61 62 62 61 60 60 61 61 62 62 61 62 62 62 62 62 63 64 64 66 67 68 68 68 67 67 69 70 70 71 71 71 71 72 72 71 71 70 70 69 67 66 65 64 64 62 62 61 61 62
30 32 25 25 22 33 44 48 45 44 39 36 49 51 48 54 57 59 60 58 59 60 59 60 59 59 60 60 61 61 61 60 60 61 61 61 61 61 61 60 60 59 60 60 60 60 61 61 62 62 62 62 62 63 63 65 66 67 68 68 68 68 67 68 69 70 71 72 71 71 71 71 71 68 68 67 66 66 65 64 63 62 61 60 60 60 59
27 27 27 25 33 45 48 44 39 42 45 50 52 50 49 55 58 59 59 60 60 59 59 59 59 60 60 60 61 61 61 60 61 61 62 62 61 61 59 59 59 59 60 59 59 60 60 60 61 61 61 61 62 62 63 64 65 67 68 69 68 68 68 68 69 70 70 71 71 71 72 71 68 66 65 65 64 64 64 63 62 61 61 60 60 59 58
32 31 32 43 44 45 47 50 50 54 52 51 53 54 52 54 56 61 58 59 60 60 59 60 60 60 60 61 61 61 60 61 60 61 61 61 61 59 59 57 59 59 58 59 59 59 59 59 60 61 61 61 61 62 63 64 64 66 68 69 68 68 69 69 69 70 70 71 70 71 70 69 66 65 64 63 62 62 62 62 62 61 60 59 59 59 58
45 45 44 47 47 47 45 44 51 51 53 49 51 52 52 55 58 59 59 61 60 60 61 60 60 60 61 61 61 61 61 61 61 62 61 60 59 58 57 58 58 58 58 58 59 59 59 59 59 60 60 60 60 61 62 63 64 65 65 67 68 68 68 69 69 70 69 68 69 70 68 67 66 65 63 62 61 61 61 61 60 59 58 57 58 58 57
33 30 47 48 51 51 51 47 50 56 56 54 52 56 57 57 58 59 59 61 61 61 61 61 62 61 61 61 61 61 61 61 61 60 60 59 58 58 58 58 57 57 57 57 58 59 58 59 59 59 60 60 60 61 62 62 63 63 63 63 63 63 62 63 64 66 65 65 64 64 64 64 65 64 63 62 61 61 60 58 58 58 58 58 57 57 56
38 38 48 51 52 54 56 54 50 51 54 55 55 59 59 60 61 60 60 62 62 62 61 62 62 62 61 61 61 61 61 61 61 60 59 59 58 58 57 57 58 58 58 58 58 58 58 59 59 59 59 60 60 61 61 62 62 62 62 62 61 61 60 61 61 62 63 62 62 60 61 61 61 61 62 61 60 59 58 57 56 56 55 55 55 54 54
42 48 50 51 53 51 54 56 56 56 56 56 57 59 60 59 59 61 61 63 62 61 62 63 62 61 60 61 61 61 61 61 60 60 59 57 57 57 56 58 58 58 58 58 58 58 58 59 59 59 60 60 61 61 61 62 62 61 61 61 60 60 60 60 59 60 57 57 58 57 56 55 54 54 56 58 56 56 57 57 56 55 54 55 56 55 56
37 36 44 51 41 42 48 52 55 57 57 58 59 60 60 60 61 62 62 61 62 63 63 63 62 62 61 61 61 61 60 61 61 59 57 57 56 56 57 58 58 57 57 58 58 58 59 59 59 60 60 60 60 60 60 61 61 60 60 60 60 59 59 59 58 59 58 58 57 57 56 55 54 53 53 47 54 55 54 54 51 50 52 56 56 56 54
42 44 46 55 54 53 54 55 55 58 57 58 59 60 60 61 62 63 63 62 61 62 62 63 62 63 61 60 61 61 61 60 60 58 57 56 55 56 58 57 57 57 58 59 58 58 59 59 59 59 60 60 60 60 60 60 60 60 59 59 59 60 59 59 59 58 59 57 56 55 54 54 53 53 51 50 43 45 49 50 45 42 43 46 48 52 56
44 44 46 53 52 48 53 54 57 58 60 59 59 61 61 62 62 62 64 64 63 62 62 62 63 62 62 61 61 61 60 59 58 57 58 58 56 57 58 57 58 59 58 58 58 58 59 59 59 60 59 59 59 58 60 59 59 59 58 58 58 58 58 60 60 60 58 56 55 54 54 53 53 53 52 51 50 43 43 45 44 42 42 42 42 45 48
43 49 50 51 52 54 56 57 58 60 60 60 59 60 61 62 62 62 63 64 65 64 63 62 62 63 62 61 61 61 60 58 57 57 59 59 58 58 57 55 57 58 57 58 59 58 59 59 59 60 59 59 59 58 60 59 59 59 58 57 56 56 58 58 59 58 57 55 55 54 54 53 53 54 53 54 52 52 50 44 43 42 42 42 42 42 42
51 52 55 56 55 56 59 58 58 60 60 61 63 62 62 63 63 62 63 64 64 64 64 63 62 62 62 61 60 60 59 58 57 58 59 58 57 58 56 55 57 58 57 59 59 59 59 59 58 58 58 58 60 60 59 59 58 59 59 59 58 58 57 56 55 56 56 54 54 54 53 54 54 54 54 54 53 54 54 54 53 49 45 43 42 42 42
55 55 54 53 52 54 57 54 54 60 61 61 63 63 63 63 62 63 62 62 63 63 64 63 63 62 61 61 60 59 58 57 57 58 59 59 59 60 58 56 57 58 58 58 57 58 58 58 59 58 58 58 58 60 60 59 59 59 58 58 57 56 56 55 53 52 52 53 53 54 53 54 54 55 54 55 55 55 54 53 53 51 50 50 45 43 48
56 56 55 50 49 53 54 57 59 60 61 61 61 61 61 61 61 62 61 61 61 61 62 62 62 61 60 60 60 59 57 56 57 58 59 60 60 60 61 60 59 59 58 56 58 59 58 58 57 57 58 58 59 59 57 58 58 58 56 55 54 53 53 53 53 52 52 53 53 53 54 55 55 55 55 55 55 54 54 54 53 52 52 51 51 48 44
55 56 57 56 58 57 58 60 60 60 61 61 61 60 60 60 60 62 61 61 61 61 60 61 61 61 60 60 59 59 58 56 58 59 59 60 59 60 59 60 59 58 58 58 58 59 59 58 58 58 59 59 59 59 58 58 57 55 54 53 55 55 53 53 52 52 53 54 56 56 57 57 56 56 56 56 55 55 55 54 54 54 54 54 54 54 53
56 58 58 57 58 59 58 58 60 60 59 59 59 59 60 59 59 59 60 60 60 60 61 60 60 60 60 60 60 60 59 59 59 59 59 59 59 60 60 60 58 57 57 57 58 59 58 58 57 57 58 59 59 58 56 58 59 59 58 56 55 54 54 55 56 57 57 57 57 58 58 57 57 56 56 56 56 56 55 55 55 54 53 54 54 53 53
57 58 57 58 57 57 56 58 60 60 59 59 59 58 59 59 59 59 58 59 60 60 60 60 60 60 60 60 60 61 61 60 59 59 59 59 60 60 60 59 56 55 55 57 58 58 58 58 58 57 59 58 58 58 58 57 58 58 58 58 57 58 58 58 58 57 56 57 57 56 56 56 56 56 56 55 55 55 54 54 54 53 54 53 52 52 52
56 57 57 57 56 56 57 59 59 59 59 58 58 58 58 58 59 59 58 58 59 59 60 60 60 60 60 60 61 61 60 60 59 59 58 58 58 59 59 60 60 59 58 59 59 59 59 59 59 59 59 59 59 59 59 58 58 58 58 58 57 57 57 57 56 56 57 58 57 56 56 56 55 55 55 54 54 54 53 53 53 52 52 52 52 53 53
55 55 55 56 56 56 57 58 58 59 58 57 58 59 59 59 59 59 59 59 58 59 59 59 60 60 60 59 59 58 58 59 59 58 58 58 57 57 56 59 59 59 59 58 58 59 60 59 58 59 59 59 58 58 57 57 58 58 59 60 58 58 58 58 58 57 57 56 56 56 56 56 55 55 55 55 54 54 53 52 52 51 51 51 50 50 49
54 53 53 57 57 57 57 58 58 59 58 57 58 58 57 58 58 59 59 59 59 59 59 59 60 60 60 59 59 58 58 58 57 57 57 58 58 58 58 58 57 57 58 57 57 57 58 59 59 59 59 59 59 59 58 57 57 57 58 58 58 57 58 59 58 57 56 55 55 56 57 56 56 55 54 54 53 53 53 52 52 51 50 49 49 48 47
54 54 55 57 56 55 57 58 58 58 57 56 56 57 58 58 59 59 59 59 59 59 60 60 60 60 59 59 58 58 58 58 58 57 57 57 58 58 58 56 55 56 56 57 58 58 59 58 59 58 60 59 58 57 56 57 55 57 58 59 59 59 59 58 58 57 56 55 55 55 55 55 55 56 55 54 54 53 53 52 51 51 50 50 49 49 48
54 55 57 57 58 58 57 57 58 58 57 57 57 57 57 58 59 59 59 59 59 60 60 60 60 59 59 58 58 58 58 58 58 57 57 57 56 56 56 56 55 55 55 55 56 56 57 57 57 57 57 57 56 56 55 55 56 56 57 57 57 58 58 58 58 57 56 55 55 55 55 56 55 55 54 54 53 53 52 51 50 50 49 49 49 48 48
54 55 56 57 58 58 58 58 58 58 58 58 57 57 58 58 59 60 60 59 59 60 60 59 58 58 58 58 58 57 58 58 58 57 57 56 56 56 56 55 56 55 54 53 54 55 57 58 57 57 56 56 55 56 56 55 57 57 57 56 56 56 55 55 56 56 56 56 55 55 55 54 54 53 54 52 51 51 50 50 50 50 49 48 48 48 48
55 55 56 57 58 58 58 58 58 59 58 58 58 58 58 59 59 59 59 59 59 59 59 59 58 59 59 58 58 57 56 56 56 57 57 57 56 56 56 56 56 54 52 54 57 58 58 58 58 57 56 56 56 56 57 56 55 53 53 54 55 55 55 55 56 56 56 56 56 55 54 53 52 52 52 52 51 51 50 50 49 49 48 48 48 48 47
54 55 56 57 57 58 59 58 58 58 56 57 57 58 59 59 59 59 58 59 59 59 59 59 59 58 58 57 56 56 56 56 57 57 57 57 57 58 57 55 57 57 56 57 59 59 58 59 58 58 57 57 56 55 57 55 54 55 54 55 55 55 55 55 54 54 55 55 53 53 53 52 52 52 51 51 51 51 51 50 50 48 47 47 46 46 46
56 56 57 57 56 58 58 58 58 58 58 58 58 58 58 58 58 58 58 58 58 59 58 58 58 57 57 57 56 56 56 56 56 57 57 55 55 55 55 55 55 55 56 57 57 57 58 58 57 57 57 56 56 56 57 54 54 54 54 53 54 54 54 54 53 53 53 53 53 54 53 52 52 52 51 51 51 50 50 49 48 47 46 46 46 46 46
57 57 57 57 58 58 57 58 58 58 58 58 59 59 59 59 58 58 57 57 58 58 58 58 58 57 57 57 56 56 56 55 56 56 56 55 55 54 52 52 54 54 56 56 57 58 58 57 56 55 56 57 57 56 54 54 53 52 52 52 52 52 53 53 53 53 52 52 52 51 52 52 51 51 51 50 50 49 48 47 46 46 45 45 45 45 45
57 57 58 58 58 58 58 58 58 57 58 58 59 59 59 59 58 58 58 58 58 58 58 58 58 58 58 57 57 56 55 55 55 55 55 55 54 53 51 52 54 56 57 56 57 56 55 56 57 57 56 57 56 56 54 53 53 52 51 51 52 53 53 53 53 52 53 52 52 52 52 51 51 50 50 50 49 48 47 46 45 46 45 45 45 44 44
58 57 58 57 57 58 57 58 57 57 57 57 58 58 58 59 58 58 58 58 57 57 58 58 58 58 57 57 56 56 55 55 55 54 54 54 55 55 53 54 56 58 57 57 55 54 54 55 55 57 59 56 54 56 54 52 51 51 51 51 52 52 53 52 52 52 51 51 51 51 51 51 50 50 49 48 48 47 47 46 45 45 45 45 45 44 44
59 59 58 57 57 57 58 58 58 57 57 57 57 58 58 58 58 58 57 57 57 57 57 57 57 57 57 57 56 55 55 54 54 53 52 53 52 53 56 55 56 58 57 54 52 50 53 54 54 56 59 58 57 56 53 51 51 51 51 51 51 52 52 52 51 51 51 51 51 51 51 51 50 49 49 48 48 47 47 46 45 46 46 46 45 44 43
59 59 58 58 58 58 58 58 58 58 58 58 57 58 58 58 58 58 57 57 57 57 57 57 57 57 57 56 56 56 56 56 55 54 52 51 50 51 54 56 58 57 55 53 51 49 50 53 55 58 59 59 56 54 53 52 52 51 51 51 51 51 51 51 51 51 51 51 51 51 51 50 49 49 49 48 48 47 47 47 47 46 46 45 45 44 44
58 58 58 57 57 58 59 60 60 60 57 57 57 57 57 58 57 57 57 57 57 57 58 58 57 57 57 57 57 57 57 56 56 56 56 55 52 54 55 56 57 56 55 54 50 48 51 56 58 58 59 58 55 51 51 52 51 51 51 50 50 50 50 50 50 50 50 50 50 50 50 50 49 49 49 48 47 47 47 48 47 47 45 44 44 44 44
59 58 59 59 59 59 59 59 59 58 57 57 56 56 57 57 57 57 57 57 57 57 58 58 58 58 58 58 57 56 54 54 54 55 54 54 54 53 55 57 57 56 54 51 48 48 50 55 57 59 58 56 53 52 51 51 51 50 50 50 50 49 49 50 51 50 50 50 50 50 50 49 49 49 49 49 48 48 48 47 46 46 46 45 45 45 45
59 58 58 58 58 58 58 58 56 56 56 56 57 57 57 57 57 56 57 57 57 57 57 58 58 58 59 58 58 57 56 54 52 53 53 53 54 54 54 55 55 55 53 52 52 54 58 58 58 57 56 54 50 51 51 50 50 50 51 51 51 50 50 49 49 49 49 50 50 51 49 49 49 49 49 47 48 47 47 46 46 46 45 45 43 43 44
58 58 58 58 57 57 57 57 56 56 56 57 58 58 57 57 57 56 56 56 57 56 55 56 57 57 58 57 57 56 57 57 56 53 53 53 53 53 55 56 56 55 51 50 50 52 58 58 57 55 53 52 50 51 49 49 49 49 49 49 49 49 50 49 49 49 49 50 49 49 49 48 49 49 49 48 48 48 48 47 47 46 44 44 44 45 44
59 58 58 57 57 57 56 56 55 56 57 57 56 58 58 58 56 55 55 55 55 54 55 56 56 56 56 56 55 56 56 56 56 57 55 55 56 56 55 56 55 54 53 51 53 53 58 58 56 53 51 50 50 49 49 49 49 49 49 49 49 49 49 49 49 50 50 49 48 48 48 49 49 49 49 48 48 48 48 47 47 48 49 47 44 44 44
59 58 58 57 57 57 58 57 57 58 58 58 57 57 57 55 55 55 55 55 54 54 54 55 55 55 55 55 55 55 55 55 55 56 54 55 56 55 56 55 54 52 53 51 52 54 54 53 52 50 48 49 48 49 48 49 48 48 49 48 49 47 47 47 47 48 48 48 48 48 49 48 49 49 49 48 48 48 48 47 47 47 47 45 45 44 43
59 59 59 59 59 58 58 59 59 59 59 59 58 57 56 56 56 56 55 56 55 54 54 54 54 55 55 55 54 54 54 53 53 53 54 54 54 53 55 55 52 51 51 52 53 55 51 51 50 49 49 48 48 48 50 50 48 47 49 50 50 48 48 48 48 48 49 48 47 48 47 48 49 49 48 48 48 48 48 47 47 46 45 45 46 45 44